www.pogodaiklimat.ru

Погода и климат >> Архив погоды >> Индонезия >> Аэропорт Умбу Механг Кунда


ПОГОДА в Аэропорту Умбу Механг Кунда

  • Прогноз погоды в Аэропорту Умбу Механг Кунда
  • Монитор погоды в Аэропорту Умбу Механг Кунда

АРХИВ ПОГОДЫ в Аэропорту Умбу Механг Кунда

Время (UTC), дата Ветер
(напр.,м/с)
 
Видим.   Явления Облачность Т
(С)
Тd
(С)
f
(%)
Тe
(С)
Тes
(С)
Комфортность P
(гПа)
Po
(гПа)
Тmin
(С)
Tmax
(С)
R
(мм)
R24
(мм)
S
(см)
03 18.03 штиль 0 8000 м осадки на расстоянии 9/5 600 м
[Cu med, cong As op Ci sp]
+26.6 +24.5 88 +37 +46 очень
душно
1009.9 1008.7 6
06 18.03 Ю 6 10 км 9/5 600 м
[Cu med, cong Ac trans Ci sp]
+30.6 +25.1 73 +44 +46 опасность
перегрева
1007.0 1005.8 6
09 18.03 штиль 0 8000 м {дождь} 10/9 600 м
[Cu med, cong Ac trans Ci sp]
+26.6 +24.7 89 +38 +38 очень
душно
1007.2 1006.0 1
12 18.03 штиль 0 5000 м {дождь} 10/3 600 м
[Cu med, cong Ac trans Ci sp]
+24.4 +23.8 96 +33 +33 очень
душно
1008.9 1007.7 +30.9 1
15 18.03 Ю 2 5000 м 8/3 600 м
[Cu med, cong Ac trans Ci sp]
+24.6 +22.7 89 +32 +32 очень
душно
1009.7 1008.5
18 18.03 штиль 0 5000 м 8/3 600 м
[Cu med, cong Ac trans Ci sp]
+24.6 +23.1 91 +33 +33 очень
душно
1007.8 1006.6
21 18.03 штиль 0 5000 м 8/3 600 м
[Cu med, cong Ac trans Ci sp]
+24.2 +23.6 96 +33 +33 очень
душно
1007.5 1006.3
00 19.03 штиль 0 10 км 4/1 600 м
[Cu med, cong Ac trans Ci sp]
+26.8 +24.2 86 +37 +43 очень
душно
1009.1 1007.9 +24.0 7
03 19.03 З 6 10 км 5/3 600 м
[Cu med, cong Ac trans Ci sp]
+30.6 +25.8 76 +46 +51 опасность
перегрева
1008.3 1007.1
06 19.03 З 7 10 км 9/4 600 м
[Cu med, cong Ac trans Ci sp]
+31.4 +25.9 73 +47 +48 опасность
перегрева
1005.7 1004.5
09 19.03 З 4 10 км 4/1 600 м
[Cu med, cong Ac trans Ci sp]
+30.8 +25.7 74 +45 +46 опасность
перегрева
1005.2 1004.0
12 19.03 штиль 0 5000 м 9/3 600 м
[Cu med, cong As op Ci sp]
+27.5 +24.6 84 +39 +39 очень
душно
1007.7 1006.5 +33.7
15 19.03 штиль 0 5000 м 9/4 600 м
[Cu med, cong Ci sp]
+26.1 +24.5 91 +37 +37 очень
душно
1008.9 1007.7
18 19.03 штиль 0 5000 м 9/4 600 м
[Cu med, cong Ac trans Ci sp]
+25.6 +24.3 93 +36 +36 очень
душно
1007.0 1005.8
21 19.03 штиль 0 5000 м 9/4 600 м
[Cu med, cong Ac trans Ci sp]
+26.2 +24.1 88 +36 +36 очень
душно
1007.5 1006.3
00 20.03 З 2 10 км 10/5 600 м
[Cu med, cong Ac trans Ci sp]
+27.8 +25.1 85 +40 +42 очень
душно
1008.9 1007.7 +25.0
03 20.03 З 6 10 км 10/3 600 м
[Cu med, cong Ac trans Ci sp]
+31.2 +25.5 72 +46 +49 опасность
перегрева
1009.0 1007.8
06 20.03 СЗ 6 10 км 8/3 600 м
[Cu med, cong Ac trans Ci sp]
+31.9 +25.9 71 +47 +51 опасность
перегрева
1006.7 1005.5
09 20.03 З 2 10 км 9/4 600 м
[Cu med, cong Ac trans Ci sp]
+31.8 +24.8 67 +45 +46 опасность
перегрева
1006.7 1005.5
12 20.03 штиль 0 5000 м 6/3 600 м
[Cu med, cong Ac trans Ci sp]
+28.6 +25.1 81 +41 +41 опасность
перегрева
1008.9 1007.7 +32.4
15 20.03 З 2 5000 м 9/4 600 м
[Cu med, cong Ac trans Ci sp]
+27.9 +25.4 86 +41 +41 опасность
перегрева
1010.2 1009.0
18 20.03 З 2 5000 м 6/3 600 м
[Cu med, cong Ac trans Ci sp]
+27.3 +25.2 88 +39 +39 очень
душно
1008.0 1006.8
21 20.03 З 5 5000 м 4/1 600 м
[Cu hum Ci sp]
+27.1 +24.6 86 +38 +38 очень
душно
1007.8 1006.7
00 21.03 З 2 10 км 8/1 600 м
[Cu hum Ac trans Ci sp]
+29.3 +25.2 79 +43 +46 опасность
перегрева
1009.7 1008.5 +27.0
03 21.03 СЗ 6 10 км 8/4 600 м
[Cu med, cong Ac trans Ci sp]
+31.0 +25.4 72 +45 +48 опасность
перегрева
1009.8 1008.6
06 21.03 З 4 10 км 5/1 600 м
[Cu med, cong Ac trans Ci sp]
+32.7 +25.1 64 +46 +54 опасность
перегрева
1007.6 1006.4
09 21.03 З 3 10 км 6/3 600 м
[Cb calv As op Ci ing]
+31.8 +25.1 68 +46 +46 опасность
перегрева
1006.8 1005.6
12 21.03 В 2 5000 м {дождь} 10/3 600 м
[Cu med, cong Ac As Ci sp]
+28.2 +25.3 84 +41 +41 опасность
перегрева
1009.5 1008.3 +32.6 0.0
15 21.03 штиль 0 5000 м 5/1 600 м
[Cu med, cong Ac trans Ci sp]
+26.6 +25.1 91 +38 +38 очень
душно
1010.9 1009.7
18 21.03 штиль 0 5000 м 5/1 600 м
[Cu med, cong Ac trans Ci sp]
+26.2 +24.7 91 +37 +37 очень
душно
1009.5 1008.3
21 21.03 штиль 0 5000 м 5/1 600 м
[Cu med, cong Ac trans Ci sp]
+26.6 +24.2 87 +37 +37 очень
душно
1009.0 1007.8
00 22.03 СЗ 5 10 км 8/1 600 м
[Cu med, cong Ac trans Ci sp]
+28.1 +25.8 87 +42 +43 опасность
перегрева
1009.8 1008.6 +25.6 0.0
03 22.03 З 5 10 км 10/3 600 м
[Cu med, cong Ac trans Ci sp]
+32.0 +25.2 67 +46 +50 опасность
перегрева
1009.4 1008.2
06 22.03 СЗ 7 10 км 10/1 600 м
[Cu med, cong Ac trans Ci sp]
+32.2 +26.4 72 +49 +51 опасность
перегрева
1007.5 1006.3
09 22.03 СЗ 4 10 км 10/3 600 м
[Cu med, cong Ac trans Ci sp]
+30.9 +25.8 74 +46 +46 опасность
перегрева
1007.1 1005.9
12 22.03 штиль 0 5000 м 8/3 600 м
[Cu hum Ci sp]
+28.8 +25.9 84 +43 +43 опасность
перегрева
1009.1 1007.9 +32.6
15 22.03 штиль 0 5000 м 4/1 600 м
[Cu hum Ci sp]
+27.4 +24.7 85 +39 +39 очень
душно
1010.2 1009.0
18 22.03 штиль 0 5000 м 8/5 600 м
[Cu med, cong Ac trans Ci sp]
+26.9 +25.2 90 +39 +39 очень
душно
1009.3 1008.1
21 22.03 штиль 0 5000 м 8/5 600 м
[Cu med, cong Ac trans Ci sp]
+26.4 +24.9 91 +38 +38 очень
душно
1008.3 1007.1
00 23.03 штиль 0 10 км 9/3 600 м
[Cu med, cong Ac trans Ci sp]
+27.4 +25.3 88 +40 +43 очень
душно
1009.2 1008.0 +26.0
03 23.03 З 4 10 км 10/3 600 м
[Cu med, cong Ac trans Ci sp]
+30.8 +25.3 73 +45 +50 опасность
перегрева
1009.8 1008.6
06 23.03 З 5 10 км 6/3 600 м
[Cu med, cong Ac trans Ci sp]
+32.2 +25.9 69 +47 +52 опасность
перегрева
1007.6 1006.4
09 23.03 СЗ 3 8000 м 10/6 600 м
[Cu med, cong Ac trans Ci sp]
+30.8 +25.7 74 +45 +46 опасность
перегрева
1007.0 1005.8
12 23.03 З 2 5000 м 10/6 600 м
[Cu med, cong Ac trans Ci sp]
+28.3 +24.2 78 +39 +39 очень
душно
1009.5 1008.3 +33.4
15 23.03 штиль 0 5000 м 8/3 600 м
[Cu med, cong Ac trans Ci sp]
+27.2 +25.1 88 +39 +39 очень
душно
1009.8 1008.6
18 23.03 штиль 0 5000 м 5/1 600 м
[Cu hum Ci sp]
+25.2 +23.9 93 +35 +35 очень
душно
1007.5 1006.3
21 23.03 ЮЗ 2 5000 м 4/1 600 м
[Cu hum Ci sp]
+25.0 +23.7 93 +34 +34 очень
душно
1008.4 1007.2
00 24.03 штиль 0 10 км 3/1 600 м
[Cu hum Ci fib]
+26.4 +24.5 89 +37 +43 очень
душно
1009.8 1008.6 +24.9
03 24.03 В 5 10 км 5/4 600 м
[Cu hum Ci sp]
+31.0 +25.7 73 +46 +52 опасность
перегрева
1009.4 1008.2
06 24.03 ЮЗ 5 10 км 4/3 600 м
[Cu hum Ci sp]
+32.2 +24.4 63 +44 +50 опасность
перегрева
1007.5 1006.3
09 24.03 Ю 2 10 км в посл. час дождь 6/5 600 м
[Cu med, cong Ac trans Ci sp]
+28.6 +24.3 78 +40 +41 очень
душно
1008.6 1007.4 1
12 24.03 штиль 0 5000 м слаб. дождь {гроза} 10/8 600 м
[Cu med, cong Ac trans Ci sp]
+24.0 +23.9 99 +33 +33 очень
душно
1010.9 1009.7 +32.6 14
15 24.03 штиль 0 5000 м в посл. час дождь 10/10 600 м
[]
+24.2 +23.2 94 +32 +32 очень
душно
1009.8 1008.7 14
18 24.03 штиль 0 5000 м 10/5 600 м
[Cu med, cong Ac As Ci sp]
+24.2 +23.2 94 +32 +32 очень
душно
1009.5 1008.2 29
21 24.03 штиль 0 5000 м 10/5 600 м
[Cu med, cong Ac As Ci sp]
+24.0 +22.3 90 +31 +31 очень
душно
1009.4 1008.2

 

Местоположение метеостанции Аэропорт Умбу Механг Кунда (Индонезия): широта -9.67 долгота 120.33 высота над уровнем моря 12 м.

В архиве по умолчанию представлена погода в Аэропорту Умбу Механг Кунда за последнюю неделю. Архивные данные за месяц целиком и за предыдущие месяцы, начиная с января 2011 года, Вы можете получить, выбрав интересующий диапазон дат из раскрывающегося списка и нажав кнопку "Ввод!".


*Определитесь, кто Вы:
робот инопланетянин человек

Внимание! Время в таблицах - всемирное. Для получения местного времени необходимо прибавить поправку, которая равна 7 ч.

Смотрите также архив погоды в соседних городах и на ближайших метеорологических станциях:

Погода в Рутенге (Индонезия) (116 км)
Погода в Сабу (Индонезия) (188 км)
Погода в Биме (Индонезия) (218 км)
Погода в Маумере (Индонезия) (240 км)
Погода на Роти (Индонезия) (322 км)
Погода в Ларантуке (Индонезия) (329 км)
Погода в Сумбава-Бесаре (Индонезия) (347 км)
Погода в Купанге (Индонезия) (369 км)
Погода в Матараме (Индонезия) (486 км)
Погода на Алоре (Индонезия) (492 км)

Пояснения к столбцам:

Ветер - указаны скорость ветра в м/с - средняя за 10 мин, порывы в срок и между сроками (в фигурных скобках) и направление, откуда дует ветер: С - северный, СВ - северо-восточный, В - восточный, ЮВ - юго-восточный, Ю - южный, ЮЗ - юго-западный, З - западный, СЗ - северо-западный.
Видимость - горизонтальная дальность видимости в метрах или километрах. При видимости от 1 до 10 км при отсутствии осадков обычно наблюдается дымка, при ухудшении видимости до 1 км и менее - туман. В сухую погоду видимость может ухудшаться дымом, пылью или мглою.
Явления - указаны атмосферные явления, наблюдавшиеся в срок или в последний час перед сроком; фигурными скобками обозначены явления, наблюдавшиеся между сроками (за 1-3 часа до срока); квадратными скобками обозначены град или гололедные отложения с указанием их диаметра в мм.
Облачность - указаны через наклонную черту общая и нижняя облачность в баллах и высота нижней границы облаков в метрах; квадратными скобками обозначены формы облаков: Ci - перистые, Cs - перисто-слоистые, Cc - перисто-кучевые, Ac - высококучевые, As - высокослоистые, Sc - слоисто-кучевые, Ns - слоисто-дождевые, Cu - кучевые, Cb - кучево-дождевые. Подробнее классификацию облаков см. в Атласе облаков (PDF).
T - Температура воздуха - температура, измеренная на высоте 2 м над землей.
Td - Температура точки росы - температура, при понижении до которой содержащийся в воздухе водяной пар достигнет насыщения.
f - Относительная влажность воздуха - влажноcть воздуха, измеренная на высоте 2 м над землей.
Te - Эффективная температура - температура, которую ощущает одетый по сезону человек в тени. Характеристика душности погоды. При расчете учитывается влияние влажности воздуха и скорости ветра на теплоощущения человека.
Tes - Эффективная температура на солнце - температура, которую ощущает человек, с поправкой на солнечный нагрев. Характеристика знойности погоды. Зависит от высоты солнца над горизонтом, облачности и скорости ветра. Ночью, в пасмурную погоду, а также при ветре 12 м/с и более поправка равна нулю.
P - Атмосферное давление - приведенное к уровню моря атмосферное давление.
Po - Атмосферное давление - измеренное на уровне метеостанции атмосферное давление.
Tmin - Минимальная температура - минимум температуры воздуха на высоте 2 м над землей.
Tmax - Максимальная температура - максимум температуры воздуха на высоте 2 м над землей.
R - Количество осадков - Количество выпавших осадков за период времени, мм. При наведении курсора мыши на число - период времени, за который выпало указанное количество осадков.
R24 - Количество осадков - Количество выпавших осадков за 24 часа, мм.
S - Снежный покров - Высота снежного покрова, см. При наведении курсора мыши на число - состояние снежного покрова и степень покрытия местности в баллах.